Miscellaneous Local Product
Issued by NWS Hastings, NE

Home | Current Version | Previous Version | Graphics & Text | Print | Product List | Glossary On
Versions: 1 2 3 4 5 6 7 8 9 10 11 12 13 14 15 16 17 18 19 20 21 22 23 24 25 26 27 28 29 30 31 32 33 34 35 36 37 38 39 40 41 42 43 44 45 46 47 48 49 50
000
AXUS43 KGID 012202
MISGRI

GID CWA HOURLY WEATHER ROUNDUP
NATIONAL WEATHER SERVICE HASTINGS NE
500 PM CDT SUN MAY 01 2016

NOTE: "FAIR" INDICATES FEW OR NO CLOUDS BELOW 12,000 FEET WITH NO
SIGNIFICANT WEATHER AND/OR OBSTRUCTIONS TO VISIBILITY.

...SOUTH CENTRAL NEBRASKA...

CITY           SKY/WX    TMP DP  RH WIND       PRES   REMARKS
GRAND ISLAND   CLOUDY    48  40  73 N18       30.16F
HASTINGS       CLOUDY    46  39  76 N18G26    30.15F
KEARNEY        PTSUNNY   48  37  66 N20G25    30.17R
ORD            PTSUNNY   52  40  63 N15       30.15F
YORK           CLOUDY    48  41  76 N16       30.15F
AURORA         CLOUDY    47  42  85 N14G22    30.15F
LEXINGTON      CLOUDY    51  38  61 NE13      30.17S
HOLDREGE       PTSUNNY   49  40  72 N22       30.15S
HEBRON         CLOUDY    47  40  76 N16G22    30.14R

...NEBRASKA PANHANDLE...

CITY           SKY/WX    TMP DP  RH WIND       PRES   REMARKS
CHADRON        MOSUNNY   57  31  37 N9G18     30.23F
ALLIANCE       SUNNY     45  29  53 NW6       30.22F
SCOTTSBLUFF    PTSUNNY   52  30  43 NE13      30.25F
SIDNEY         SUNNY     44  27  51 N15       30.25F

...WESTERN AND NORTH CENTRAL NEBRASKA...

CITY           SKY/WX    TMP DP  RH WIND       PRES   REMARKS
VALENTINE      PTSUNNY   54  30  40 N14G22    30.21F
AINSWORTH      PTSUNNY   55  32  42 N15       30.20F
ONEILL         PTSUNNY   54  35  50 N10G17    30.19S
BROKEN BOW     PTSUNNY   52  35  52 N14G23    30.16F
IMPERIAL       MOSUNNY   50  32  50 N25       30.21S
NORTH PLATTE   CLOUDY    52  31  44 N17       30.19S
MCCOOK         CLOUDY    54  34  46 NE18G29   30.17R

...EASTERN NEBRASKA...

CITY           SKY/WX    TMP DP  RH WIND       PRES   REMARKS
NORFOLK        PTSUNNY   52  40  63 N14G23    30.14F
SO SIOUX CITY  CLOUDY    55  41  59 NE12G21   30.14F
TEKAMAH        CLOUDY    51  44  77 N18       30.12F
COLUMBUS       CLOUDY    50  37  62 N17       30.15F
ALBION         CLOUDY    50  40  68 N9G18     30.16F
OMAHA EPPLEY   CLOUDY    49  43  80 N17       30.11S
OFFUTT AFB     CLOUDY    49  43  80 N10       30.10S
MILLARD        CLOUDY    49  42  78 N7G16     30.12S
LINCOLN        CLOUDY    48  41  76 N14       30.15S
NEBRASKA CITY  CLOUDY    48  44  86 N14       30.10S
BEATRICE       CLOUDY    47  42  82 N18       30.12F
FALLS CITY     CLOUDY    52  44  74 N9        30.08S

...NORTHERN KANSAS...

CITY           SKY/WX    TMP DP  RH WIND       PRES   REMARKS
GOODLAND       CLOUDY    50  31  48 N18       30.20F
HILL CITY      CLOUDY    52  39  61 N17       30.18F
NORTON         CLOUDY    48  36  61 NE7       30.19
PHILLIPSBURG   CLOUDY    48  39  71 N12       30.20R
SMITH CENTER   CLOUDY    46  39  76 N13G18    30.18S
BELOIT         CLOUDY    46  39  76 N15       30.15S
HAYS           CLOUDY    48  34  57 N15       30.17S
RUSSELL        CLOUDY    49  40  71 N20       30.15R
CONCORDIA      CLOUDY    48  39  71 N14       30.14S
SALINA         CLOUDY    53  42  66 N16       30.14S
TOPEKA         CLOUDY    55  46  71 NW9       30.08R



USA.gov is the U.S. government's official web portal to all federal, state and local government web resources and services.